Weather History for Dubuque, IA

Change the Weather History Date:

Tuesday, September 17, 2013

  Actual Average Record
Temperature  
Mean Temperature 56 °F 62 °F  
Max Temperature 66 °F 72 °F 91 °F (1927)
Min Temperature 46 °F 51 °F 38 °F (1916)
Degree Days  
Heating Degree Days 9 5  
Month to date heating degree days 48 54  
Since 1 July heating degree days 80 81  
Cooling Degree Days 0 2  
Month to date cooling degree days 78 47  
Year to date cooling degree days 614 623  
Growing Degree Days 6 (Base 50)    
Moisture  
Dew Point 52 °F    
Average Humidity 84    
Maximum Humidity 100    
Minimum Humidity 67    
Precipitation  
Precipitation 0.00 in 0.12 in 2.09 in (1938)
Month to date precipitation 0.44 2.00  
Year to date precipitation 31.13 27.98  
Snow  
Snow 0.00 in 0.00 in - ()
Month to date snowfall 0.0 0.0  
Since 1 July snowfall 0.0 0.0  
Since 1 September snowfall 0.0 0.0  
Snow Depth 0.00 in    
Sea Level Pressure  
Sea Level Pressure 30.21 in    
Wind  
Wind Speed 9 mph (SE)    
Max Wind Speed 15 mph    
Max Gust Speed 18 mph    
Visibility 10 miles    
Events      
T = Trace of Precipitation, MM = Missing Value Source: NWS Daily Summary

Daily Weather History Graph

Daily Weather History Graph

Search for Another Location

Airport:

Trip Planner

Search our weather history database for the weather conditions in past years. The results will help you decide how hot, cold, wet, or windy it might be!

Date:

Astronomy

Sep. 17, 2013 Rise Set
Actual Time 6:45 AM CDT 7:08 PM CDT
Civil Twilight 6:16 AM CDT 7:36 PM CDT
Nautical Twilight 5:43 AM CDT 8:09 PM CDT
Astronomical Twilight 5:09 AM CDT 8:43 PM CDT
Moon 5:56 PM CDT (9/17) 4:38 AM CDT (9/17)
Length of Visible Light 13h 19m
Length of Day
12h 23m
Waxing Gibbous, 96% of the Moon is Illuminated
Sep 17
Waxing Gibbous
Sep 19
Full
Sep 26
Last Quarter
Oct 4
New
Oct 11
First Quarter

Hourly Weather History & Observations

Time (CDT) Temp. Windchill Dew Point Humidity Pressure Visibility Wind Dir Wind Speed Gust Speed Precip Events Conditions
12:53 AM 48.9 °F - 46.0 °F 90% 30.34 in 10.0 mi ESE 9.2 mph - N/A   Clear
1:53 AM 48.0 °F - 46.0 °F 93% 30.34 in 10.0 mi SE 6.9 mph - N/A   Clear
2:53 AM 46.9 °F - 45.0 °F 93% 30.33 in 10.0 mi SE 5.8 mph - N/A   Clear
3:53 AM 46.9 °F - 45.0 °F 93% 30.32 in 10.0 mi ESE 3.5 mph - N/A   Clear
4:53 AM 46.0 °F 44.8 °F 45.0 °F 96% 30.30 in 10.0 mi East 3.5 mph - N/A   Clear
5:53 AM 46.9 °F - 45.0 °F 93% 30.30 in 10.0 mi East 3.5 mph - N/A   Clear
6:53 AM 46.9 °F - 46.0 °F 97% 30.30 in 10.0 mi North - - N/A   Clear
7:53 AM 48.0 °F - 46.9 °F 96% 30.30 in 9.0 mi ENE 3.5 mph - N/A   Clear
8:53 AM 53.1 °F - 50.0 °F 89% 30.30 in 8.0 mi SE 10.4 mph - N/A   Clear
9:53 AM 57.0 °F - 52.0 °F 83% 30.29 in 10.0 mi SSE 8.1 mph - N/A   Clear
10:53 AM 60.1 °F - 53.1 °F 78% 30.27 in 10.0 mi SSE 6.9 mph - N/A   Clear
11:53 AM 60.1 °F - 52.0 °F 75% 30.25 in 10.0 mi SE 11.5 mph 18.4 mph N/A   Clear
12:53 PM 62.1 °F - 53.1 °F 72% 30.24 in 10.0 mi SSE 11.5 mph - N/A   Clear
1:21 PM 62.6 °F - 53.6 °F 72% 30.22 in 10.0 mi SSE 8.1 mph - N/A   Mostly Cloudy
1:31 PM 62.6 °F - 53.6 °F 72% 30.22 in 10.0 mi SSE 10.4 mph - N/A   Mostly Cloudy
1:53 PM 63.0 °F - 54.0 °F 72% 30.21 in 10.0 mi SSE 13.8 mph - N/A   Scattered Clouds
2:53 PM 64.0 °F - 54.0 °F 70% 30.18 in 10.0 mi SSE 6.9 mph - N/A   Overcast
3:53 PM 66.0 °F - 55.0 °F 68% 30.15 in 10.0 mi SSE 10.4 mph - N/A   Mostly Cloudy
4:53 PM 66.0 °F - 55.0 °F 68% 30.14 in 10.0 mi SSE 9.2 mph - N/A   Overcast
5:53 PM 64.9 °F - 55.0 °F 70% 30.13 in 10.0 mi SSE 11.5 mph - N/A   Overcast
6:53 PM 64.0 °F - 55.9 °F 75% 30.11 in 10.0 mi SSE 9.2 mph - N/A   Overcast
7:14 PM 64.4 °F - 55.4 °F 73% 30.10 in 10.0 mi SSE 9.2 mph - N/A   Overcast
7:53 PM 63.0 °F - 55.9 °F 78% 30.10 in 10.0 mi SSE 10.4 mph - N/A   Overcast
8:42 PM 62.6 °F - 57.2 °F 82% 30.09 in 10.0 mi SSE 11.5 mph - N/A   Overcast
8:53 PM 63.0 °F - 57.0 °F 81% 30.09 in 10.0 mi SSE 12.7 mph - N/A   Overcast
9:53 PM 64.9 °F - 57.0 °F 75% 30.09 in 10.0 mi SSE 10.4 mph - N/A   Overcast
10:53 PM 63.0 °F - 57.0 °F 81% 30.07 in 10.0 mi SSE 11.5 mph - N/A   Overcast
11:21 PM 62.6 °F - 57.2 °F 82% 30.07 in 10.0 mi SSE 9.2 mph - N/A   Overcast
11:53 PM 63.0 °F - 57.0 °F 81% 30.06 in 10.0 mi SSE 9.2 mph - N/A   Overcast